Regional Weather Roundup
Issued by NWS Newport/Morehead, NC

Current Version | Previous Version | Text Only | Print | Product List | Glossary On
Versions: 1 2 3 4 5 6 7 8 9 10 11 12 13 14 15 16 17 18 19 20 21 22 23 24 25 26 27 28 29 30 31 32 33 34 35 36 37 38 39 40 41 42 43 44 45 46 47 48 49 50
000
ASUS42 KMHX 210110
RWRMHX
WEATHER ROUNDUP FOR EASTERN NORTH CAROLINA
NATIONAL WEATHER SERVICE NEWPORT/MOREHEAD CITY NC
900 PM EDT MON OCT 20 2014

NOTE: "FAIR" INDICATES FEW OR NO CLOUDS BELOW 12,000 FEET
WITH NO SIGNIFICANT WEATHER AND/OR OBSTRUCTIONS TO VISIBILITY

NCZ015>017-031-032-045>047-102-103-210200-
NORTH COAST

CITY           SKY/WX    TMP DP  RH WIND       PRES   REMARKS
EDENTON        CLEAR     62  56  80 S7        30.02S
ELIZABETH CITY PTCLDY    63  54  72 S6        30.02F
KITTY HAWK     MOCLDY    63  58  83 CALM      30.02S
MANTEO         CLOUDY    66  60  82 S8        30.03S

$$

NCZ045>047-081-094-103-104-210200-
CENTRAL COAST

CITY           SKY/WX    TMP DP  RH WIND       PRES   REMARKS
FRISCO         MOCLDY    70  58  65 S10       30.04S
SWANQUARTER      N/A     64 N/A N/A S5        30.00S

$$

NCZ095-097-098-100-101-210200-
SOUTHERN COAST

CITY           SKY/WX    TMP DP  RH WIND       PRES   REMARKS
BEAUFORT       MOCLDY    65  59  81 S7        30.02S
CEDAR ISLAND     N/A     66 N/A N/A S2        30.06S
JACKSONVILLE   CLOUDY    62  58  86 CALM      30.01F
PINEY ISLAND   MOCLDY    68  55  63 SE3       30.02F
WILMINGTON     PTCLDY    61  58  90 CALM      30.01F


$$

NCZ011>013-027>030-043-044-078>080-089-090>093-098-210200-
COASTAL PLAIN

CITY           SKY/WX    TMP DP  RH WIND       PRES   REMARKS
AHOSKIE          N/A     51  49  95 CALM      30.01F
CLINTON        CLEAR     63  57  83 CALM      30.01S
ELIZABETHTOWN  MOCLDY    63  57  82 S3        30.01S
GOLDSBORO      PTCLDY    63  61  91 SE1       29.99S
GREENVILLE     PTCLDY    61  55  82 S3        30.03S
HAVELOCK       MOCLDY    62  56  80 CALM      30.03S
KENANSVILLE    CLEAR     58  55  91 CALM      30.02F
KINSTON        PTCLDY    61  55  82 S6        30.02S
NEW BERN       PTCLDY    61  55  81 CALM      30.03F
RICHLANDS      CLEAR     59  54  82 CALM      30.02F
ROCKY MOUNT    PTCLDY    53  51  93 CALM      30.00S
WASHINGTON     CLEAR     62  55  78 S3        30.02S
WHITEVILLE     PTCLDY    60  57  90 CALM      30.01S

$$

AMZ130-135-150-152-154-156-158-170-250-252-270-ANZ085-086-088-633-658-670-210200-
MARINE OBSERVATIONS

STATION/POSITION TIME  TEMP    WIND        PRES    WAVE   SWELL
                       AIR SEA DIR/SP/G            HT/PER HT/PER
                 (UTC) (F)     (DEG/KT/KT) (MB)    (FT/S) (FT/S)
CHESAPEAKE LIGHT 0000   67     200/ 17/ 19 1016.7
64 E VA BEACH    0100   70 69  200/ 17/ 21 1016.2    4/ 4   2/11
DUCK             0100   65 69                N/A
2 E DUCK         0100                        N/A     2/11   2/11
10 NE DUCK       0100      71                N/A     3/11   2/11
OREGON INLET     0100   68 67                N/A
13E OREGON INLT  0100      73                N/A     3/13   2/13
HATTERAS CG      0100   72 70                N/A
DIAMOND BUOY     0100   72     190/ 12/ 17 1017.3    4/ 8   3/ 8
17 S OCRACOKE    0000          VRB 10/ 14  1017.0
CAPE LOOKOUT     0100   72     160/ 13/ 14 1016.5
BEAUFORT LAB     0100   72 70                N/A
30 SE NEW RIVER  0100   74 76  190/ 12/ 16 1015.9    2/ 9   2/ 9
5 SE WRIGHTSVLE  0100   70 74  180/  8/ 10   N/A
225 S CAPE HAT   0026   74 80  140/ 10/ 12 1018.2    3/ 9   3/ 9
41 SE CHARLESTON 0100   76 80  230/  6/  8 1015.7    3/ 9   3/ 9

$$



USA.gov is the U.S. government's official web portal to all federal, state and local government web resources and services.